Regional Weather Roundup
Issued by NWS

Home | Current Version | Previous Version | Graphics & Text | Print | Product List | Glossary On
Versions: 1 2 3 4 5 6 7 8 9 10 11 12 13 14 15 16 17 18 19 20 21 22 23 24 25 26 27 28 29 30 31 32 33 34 35 36 37 38 39 40 41 42 43 44 45 46 47 48 49 50
779
ASUS43 KIND 240700
RWRIN

WEATHER ROUNDUP FOR INDIANA
NATIONAL WEATHER SERVICE INDIANAPOLIS IN
300 AM EDT SUN SEP 24 2017

NOTE: "FAIR" INDICATES FEW OR NO CLOUDS BELOW 12,000 FEET WITH NO
SIGNIFICANT WEATHER AND/OR OBSTRUCTIONS TO VISIBILITY.

* - STATION DOES NOT REPORT WEATHER SUCH AS PRECIPITATION OR FOG.

+ - STATION NOT QUALITY CONTROLLED BY THE NATIONAL WEATHER SERVICE.
    USE DATA WITH CAUTION...ESPECIALLY DEWPOINT AND RELATIVE
    HUMIDITY OBSERVATIONS.

INZ001>003-010>013-019-020-240800-
NORTHWEST INDIANA

CITY           SKY/WX    TMP DP  RH WIND       PRES   REMARKS

$$

LMZ046-743>745-240800-
SOUTHERN LAKE MICHIGAN

STATION/POSITION TIME  TEMP    WIND        PRES    WAVE
                       AIR SEA DIR/SP/G            HT
                 (UTC) (F)     (DEG/KT/KT) (MB)    (FT)
BURNS HARBOR     0640   79     140/  6/ 12 1018.6S
MICHIGAN CITY    0630   77     120/  8/ 11   N/A
5NW MICH CITY    0650   76 72  150/  8/ 10   N/A     0

$$

INZ004-005-014>016-021>024-240800-
NORTH CENTRAL INDIANA

CITY           SKY/WX    TMP DP  RH WIND       PRES   REMARKS
GOSHEN         CLEAR     66  60  81 CALM      30.11R
SOUTH BEND     CLEAR     68  64  87 E3        30.11R

$$

INZ006>009-017-018-025>027-240800-
NORTHEAST INDIANA

CITY           SKY/WX    TMP DP  RH WIND       PRES   REMARKS
FORT WAYNE     CLEAR     67  60  78 E3        30.12S
KENDALLVILLE + CLEAR     68  60  76 E3        30.13S

$$

INZ028-029-035-036-043>045-051>053-240800-
WEST CENTRAL INDIANA

CITY           SKY/WX    TMP DP  RH WIND       PRES   REMARKS
LAFAYETTE      CLEAR     67  65  93 CALM      30.07S
TERRE HAUTE    CLEAR     62  60  93 CALM      30.06S

$$

INZ030>032-037>040-046>048-054>057-064-065-240800-
CENTRAL INDIANA

CITY           SKY/WX    TMP DP  RH WIND       PRES   REMARKS
GREENWOOD *+   CLEAR     71  67  88 CALM      30.09R
INDIANAPOLIS   CLEAR     72  64  76 CALM      30.08R
-EAGLE CREEK   CLEAR     70  63  78 N3        30.08R
KOKOMO +       CLEAR     66  62  87 CALM      30.11S
MT COMFORT *+  CLEAR     63  61  94 N3        30.10R
SHELBYVILLE    CLEAR     65  60  84 E7        30.07S

$$

INZ033-034-041-042-049-050-058-059-240800-
EAST CENTRAL INDIANA

CITY           SKY/WX    TMP DP  RH WIND       PRES   REMARKS
MUNCIE         CLEAR     63  59  87 CALM      30.11R
RICHMOND +     CLEAR     61  59  94 E7        30.12S

$$

INZ060-061-067>069-081>083-085>088-240800-
SOUTHWEST INDIANA

CITY           SKY/WX    TMP DP  RH WIND       PRES   REMARKS
EVANSVILLE     CLEAR     67  64  90 NE3       30.05R
HUNTINGBURG +  CLEAR     65  65 100 NE3       30.06S FOG

$$

INZ062-063-066-070>080-084-089>092-240800-
SOUTH CENTRAL AND SOUTHEAST INDIANA

CITY           SKY/WX    TMP DP  RH WIND       PRES   REMARKS
BLOOMINGTON    CLEAR     63  60  90 CALM      30.07R
MADISON *+     CLEAR     64  63  94 CALM      30.09F
SEYMOUR +      CLEAR     64  64 100 CALM      30.07R FOG

$$





USA.gov is the U.S. government's official web portal to all federal, state and local government web resources and services.